RH
39 35 33 30 34 42 44 40 25 21 15 6 4 5 5 4 5 6 7 7 8 10 23 20 17 19 22 25 24 29 32 32 33 34 31 27 26 22 19 17 18 21 20 18
39 32 28 28 34 33 44 52 28 22 19 8 5 5 5 5 5 6 7 7 7 9 12 29 29 21 21 22 24 31 34 35 36 34 31 29 27 26 21 17 16 16 18 18
37 29 24 27 32 32 41 48 35 32 25 13 4 4 5 5 5 6 7 8 8 10 11 17 34 44 32 24 26 26 26 28 32 32 30 26 24 22 18 16 17 16 16 16
32 31 23 28 25 31 41 44 36 28 23 16 5 5 5 5 5 6 7 8 9 10 12 14 17 28 50 48 31 30 31 31 29 32 31 31 28 25 22 20 18 18 15 16
31 30 24 24 25 31 43 39 32 27 14 19 6 4 5 5 5 5 7 9 9 10 11 13 16 23 33 49 53 39 34 28 34 40 43 36 30 28 27 23 18 18 17 17
34 31 26 21 21 29 36 32 37 22 14 13 8 4 4 5 5 5 7 9 9 10 11 15 16 19 26 30 46 56 51 32 30 30 32 32 39 26 26 23 24 24 24 19
40 28 21 21 22 29 32 35 28 21 13 11 10 4 4 4 5 6 7 9 10 11 11 13 16 18 21 27 40 52 63 61 45 35 33 31 31 31 30 28 27 30 26 22
41 26 21 22 28 27 27 37 27 21 18 9 10 5 4 4 5 6 6 9 12 12 13 12 15 17 18 19 26 38 50 57 68 61 41 30 29 33 39 28 28 29 28 28
34 27 24 23 21 22 28 34 29 19 16 13 11 5 4 5 5 6 6 9 11 13 13 14 16 19 21 20 24 31 50 56 59 67 62 46 35 35 34 36 36 32 31 42
41 37 31 25 23 22 25 25 28 18 19 14 11 6 4 4 5 6 7 8 12 12 12 13 16 19 22 21 24 25 30 52 60 64 60 64 59 39 32 33 37 42 40 50
40 44 37 32 29 25 20 22 22 15 18 18 12 6 4 4 5 6 7 9 10 14 15 15 16 19 21 21 23 24 25 32 52 61 60 73 67 56 44 50 54 60 55 57
37 41 39 34 32 24 18 20 21 19 19 17 10 6 5 5 5 7 8 9 11 13 16 19 20 25 24 26 29 29 27 26 35 50 64 71 76 72 68 56 62 67 71 70
29 40 30 37 32 22 18 25 20 20 15 16 11 7 5 5 6 7 8 10 12 14 15 20 22 25 28 27 29 40 39 35 32 38 48 64 75 82 88 82 72 60 67 72
28 32 28 23 27 21 19 31 18 17 18 26 13 8 6 6 6 8 9 11 12 14 16 20 20 20 35 38 44 52 54 56 42 42 40 58 63 80 82 91 98 92 83 80
30 33 23 27 22 25 26 26 16 14 28 25 16 9 7 7 7 8 10 11 13 15 16 18 19 23 48 42 46 72 43 48 56 56 46 55 55 60 71 86 89 99 100 94
48 33 19 23 26 20 21 23 11 14 25 24 23 11 8 8 8 9 10 12 13 15 17 18 18 21 36 43 50 59 58 44 45 61 51 66 62 59 66 82 90 96 93 97
56 46 33 30 23 22 31 16 12 13 24 34 29 20 9 9 9 10 11 12 14 14 17 20 20 21 27 35 37 44 38 25 33 48 44 53 56 49 46 49 72 88 97 97
72 56 49 40 33 28 18 9 9 15 19 36 46 39 13 10 10 10 11 12 13 14 16 18 21 23 23 22 27 34 28 32 33 39 50 54 46 39 55 57 53 52 64 81
81 71 58 54 48 42 17 10 7 10 18 25 26 40 19 12 10 10 10 12 13 14 14 16 18 20 18 21 19 21 26 35 24 11 15 24 36 42 50 44 49 47 52 53
88 82 77 74 55 40 22 16 20 10 16 22 19 19 19 14 12 12 11 11 13 13 13 14 16 14 14 15 15 15 17 21 16 15 18 19 20 27 38 45 46 51 44 48
89 90 83 63 49 35 31 30 24 28 29 16 12 18 16 16 14 13 12 12 12 14 14 14 12 11 12 13 14 14 14 15 15 15 14 14 18 21 29 38 43 44 48 43
83 70 55 50 42 43 35 39 34 32 30 24 19 13 12 16 15 14 13 13 13 14 14 14 12 14 14 15 17 15 15 14 14 13 13 14 17 22 26 32 37 40 43 44
72 52 56 44 47 52 38 45 45 40 23 20 22 17 11 13 16 16 13 13 12 14 14 12 13 14 13 15 17 17 18 16 13 12 11 14 16 19 21 25 32 34 40 46
72 67 51 52 62 65 55 50 46 42 29 17 16 12 11 12 13 16 15 13 12 11 10 12 13 14 15 16 15 18 21 19 16 14 10 8 13 18 21 20 24 30 36 43
67 62 70 52 68 68 55 52 52 42 33 21 20 14 11 10 12 13 17 14 12 11 10 10 12 14 18 16 18 17 21 22 17 16 11 7 7 12 20 23 25 27 30 33
70 70 61 70 60 66 58 61 48 48 31 28 19 12 11 10 12 13 13 16 13 12 10 11 13 14 15 14 17 18 20 23 22 19 17 12 10 8 12 19 25 28 29 28
82 83 79 62 58 55 54 49 59 41 50 23 16 12 10 8 10 14 12 12 14 12 11 10 14 14 13 14 15 17 19 20 24 22 20 18 13 13 12 14 19 24 27 29
Wind_Speed
75 77 82 86 91 93 100 107 104 105 99 81 74 67 62 51 40 35 31 26 20 18 14 9 4 8 10 14 19 22 21 22 23 28 35 40 45 48 53 58 63 70 75 78
76 77 80 85 89 92 98 105 104 105 101 89 72 65 59 52 40 31 28 25 20 14 13 9 5 2 8 12 16 18 20 22 23 26 29 33 39 44 48 54 61 65 69 74
76 78 79 84 90 92 96 102 106 106 105 91 69 64 57 50 41 29 25 23 19 14 11 8 5 2 3 9 13 15 19 23 27 29 31 33 36 37 42 48 51 57 61 68
76 78 80 84 87 91 95 101 104 104 104 91 71 61 57 48 43 31 22 21 19 13 8 7 5 2 3 6 11 16 19 22 24 26 28 31 34 38 41 45 50 49 55 58
76 78 79 83 88 92 97 98 101 103 100 95 69 61 54 47 41 32 22 19 19 16 12 8 7 6 6 6 10 14 18 23 27 29 31 32 35 37 41 44 46 48 50 55
76 80 80 82 86 90 95 97 102 100 96 94 76 61 52 45 38 33 23 19 19 18 15 12 11 9 9 8 9 12 15 19 24 29 32 35 36 41 40 41 41 43 43 51
79 80 80 82 87 92 95 96 100 101 97 93 80 59 53 45 36 31 24 18 19 19 17 16 14 13 12 10 10 10 13 17 20 23 27 34 39 38 41 43 42 42 44 44
81 82 82 85 89 91 93 97 99 101 103 92 82 61 51 44 38 31 25 19 19 21 19 17 16 16 16 15 13 11 12 14 16 20 24 29 32 37 41 42 42 43 42 40
81 83 85 88 89 92 94 98 99 97 97 93 82 63 53 44 39 31 26 19 19 21 21 19 18 17 17 17 16 15 14 14 15 18 21 22 26 32 37 42 42 43 40 40
85 87 89 90 92 93 95 94 101 98 97 98 86 63 53 44 37 31 25 21 20 21 22 21 20 20 19 19 19 18 16 16 17 20 19 18 21 25 29 33 40 40 39 39
88 89 92 94 96 97 95 94 98 93 94 99 83 59 52 44 35 29 25 24 21 21 22 23 23 23 22 21 21 20 19 18 19 20 19 21 20 20 21 26 32 35 36 39
89 92 94 96 98 97 94 97 97 95 103 96 80 56 49 40 34 29 24 26 22 23 23 23 25 24 23 23 22 22 21 21 21 21 20 21 21 19 20 22 29 33 34 38
90 95 97 100 101 99 97 100 96 101 93 104 85 58 50 40 34 28 24 24 24 23 25 26 26 25 26 25 25 25 25 25 25 25 22 21 22 24 24 23 24 29 33 36
95 98 101 101 103 102 101 107 100 95 96 106 88 62 53 41 34 30 25 23 24 24 26 28 28 25 26 27 26 29 30 30 29 29 26 25 26 24 25 25 25 25 28 30
100 103 103 104 103 105 107 110 103 92 106 100 94 72 57 45 35 30 27 25 25 26 28 30 30 29 31 33 31 36 35 34 31 33 29 31 30 29 27 26 26 28 29 31
105 106 107 107 109 107 106 109 100 94 108 102 99 74 62 49 39 33 28 25 25 28 30 32 32 33 35 36 37 39 39 38 38 38 35 35 37 36 33 32 30 30 30 30
110 111 111 113 112 110 112 104 101 102 107 109 103 94 68 53 43 36 32 28 26 28 31 34 34 36 38 40 40 43 42 39 38 41 39 38 41 39 37 36 37 36 35 33
112 115 115 116 117 115 110 101 100 105 113 117 106 105 77 57 45 39 35 33 30 29 31 32 34 36 37 39 39 44 39 36 40 43 45 46 45 39 40 39 39 39 39 38
114 118 118 121 120 124 117 105 94 101 110 112 103 104 88 61 51 42 37 35 33 31 32 32 34 36 37 37 35 35 29 38 47 42 42 46 46 44 44 43 41 40 40 41
115 118 119 124 124 125 118 115 114 108 111 109 102 98 90 62 56 47 40 38 36 34 34 35 35 35 32 33 31 31 30 40 44 37 40 41 44 45 45 45 45 44 42 41
114 119 123 123 120 122 122 120 121 121 122 105 80 92 83 66 55 48 43 40 38 36 37 38 36 32 31 30 32 26 28 31 34 36 39 39 38 39 45 47 47 47 46 44
116 120 121 117 120 124 123 127 124 121 121 117 101 83 68 60 57 48 44 43 42 39 38 40 36 34 32 29 32 28 26 26 28 33 36 37 36 42 45 46 48 48 47 46
120 119 121 122 121 126 128 133 129 124 117 115 110 98 67 50 50 47 43 43 43 43 40 39 37 35 32 30 30 28 25 26 25 28 34 38 43 46 47 48 49 49 48 48
120 121 121 124 125 129 130 130 132 128 123 114 106 98 73 48 42 44 43 43 44 43 42 38 38 34 34 33 30 26 26 25 25 27 32 36 42 47 48 46 49 51 51 51
125 124 125 126 129 130 132 133 134 128 126 119 109 95 71 54 45 39 42 43 45 45 42 38 36 32 36 35 33 29 26 26 26 26 30 32 38 43 48 49 48 48 50 50
126 129 129 130 131 134 133 136 131 131 121 118 111 89 67 54 53 45 38 41 44 44 43 36 35 34 36 36 35 33 30 27 27 27 28 31 33 38 42 47 49 49 49 49
129 133 136 138 133 135 134 132 133 126 127 116 104 85 70 52 47 49 42 39 44 47 45 38 35 38 37 38 37 37 34 31 27 27 28 30 32 34 37 41 43 44 45 44
Wind_Direction
332 337 341 346 351 352 357 357 353 349 354 357 352 347 345 346 347 345 351 358 9 19 28 32 79 143 167 172 183 191 200 208 217 226 231 231 231 229 225 224 225 224 226 228
330 336 340 345 349 353 355 356 354 349 351 353 352 346 343 340 344 341 341 345 354 9 18 29 31 96 176 184 190 195 201 200 203 211 220 222 224 226 225 225 225 224 225 227
328 334 339 344 347 352 356 355 353 350 350 355 354 345 342 336 336 337 331 335 337 347 3 8 20 12 248 213 212 211 210 209 209 212 216 219 222 223 223 224 225 225 227 229
327 332 338 343 346 351 355 356 353 349 347 351 354 344 339 336 330 332 326 320 321 322 322 325 341 317 277 250 231 218 220 219 218 218 218 219 221 223 225 226 227 225 227 229
325 330 337 340 343 350 352 355 354 349 343 347 354 346 339 336 327 325 319 309 306 304 300 299 295 290 278 258 247 238 227 221 215 218 221 222 223 223 225 229 231 228 227 231
324 328 333 339 343 348 350 354 353 350 341 343 351 347 341 335 328 322 315 300 298 292 288 277 275 270 267 269 257 252 251 240 231 225 222 225 227 229 229 231 229 231 228 231
322 326 332 336 342 347 349 353 353 351 341 341 351 347 340 335 326 318 308 291 287 283 277 269 263 261 261 255 250 249 248 254 248 240 236 229 231 233 234 233 232 229 229 229
321 325 330 334 339 344 349 352 353 352 347 338 346 346 341 334 326 318 303 287 280 273 272 270 265 261 259 254 249 248 248 246 249 252 247 243 239 235 235 236 237 236 235 230
320 324 329 333 337 344 348 351 352 352 346 339 343 346 340 334 324 315 303 284 280 274 266 266 262 255 254 252 248 248 252 254 254 256 258 253 246 241 238 238 238 238 235 230
319 323 327 331 335 341 345 350 351 354 351 345 348 348 340 334 326 315 301 284 272 272 267 264 262 257 253 248 247 245 243 249 252 255 258 261 253 245 244 240 239 239 239 232
318 322 325 328 333 338 343 349 350 353 354 348 349 347 338 333 326 314 300 281 273 266 264 261 259 258 253 248 245 244 245 244 246 250 252 257 258 255 246 241 238 236 236 233
316 320 323 326 330 335 341 347 349 354 353 348 348 344 340 335 327 314 299 286 276 265 262 259 258 256 254 250 249 251 251 249 248 249 246 249 253 256 257 244 236 239 238 237
316 318 320 324 328 334 339 343 347 354 352 355 349 343 337 334 326 313 298 285 278 267 262 262 256 254 254 251 252 246 248 249 249 251 248 247 245 249 252 252 245 238 235 237
315 317 320 323 327 332 338 340 342 352 359 355 352 346 338 334 327 315 302 285 276 269 263 262 264 261 256 258 256 255 245 242 245 247 246 247 247 242 245 249 253 250 246 243
313 316 318 322 325 331 335 337 341 351 358 355 353 349 338 333 328 316 308 290 278 270 263 261 259 260 260 258 254 253 256 253 248 249 248 249 248 250 247 245 244 245 247 247
312 314 317 321 326 330 334 336 344 353 355 356 351 352 339 334 329 318 308 296 281 274 270 266 267 264 261 260 259 257 257 256 255 250 246 244 248 247 246 247 248 246 244 242
310 312 316 320 322 327 329 334 341 347 349 353 351 350 339 335 328 319 309 297 287 278 273 267 266 265 265 264 261 262 261 260 257 258 258 250 250 248 248 247 246 247 247 247
309 311 314 317 321 324 327 335 341 344 348 348 350 347 342 333 328 320 310 299 287 278 273 270 266 265 263 263 262 261 266 268 261 251 250 251 252 249 250 251 250 250 250 250
307 308 312 315 318 321 325 333 341 346 347 349 349 347 345 330 324 320 310 300 291 280 274 271 269 267 267 267 267 264 252 248 252 256 248 246 246 249 250 250 250 251 250 250
304 307 309 312 315 318 323 328 333 339 341 343 348 349 343 332 322 317 311 302 296 287 277 272 271 271 270 269 265 263 248 250 260 260 254 249 246 245 245 247 249 250 251 250
304 306 307 310 315 319 320 326 331 335 336 341 349 346 343 331 320 315 309 301 297 292 285 279 279 280 278 277 277 270 264 257 258 251 247 247 244 242 241 243 247 249 250 251
302 304 308 313 314 317 321 324 329 334 333 336 341 344 343 331 317 313 307 301 295 291 287 283 285 284 282 279 277 279 272 258 250 247 243 240 237 236 238 240 243 246 248 250
300 304 309 312 316 317 321 321 326 330 332 336 336 337 338 329 317 312 305 301 294 288 285 284 283 281 280 275 273 275 274 268 256 248 246 241 235 235 236 237 240 244 246 249
302 305 307 310 313 315 316 320 322 327 331 333 335 337 333 325 316 313 308 299 293 290 287 283 278 278 279 273 271 270 270 265 262 259 248 243 241 239 241 241 239 241 243 247
300 304 305 307 311 313 316 319 322 323 327 331 331 332 328 321 313 311 307 299 294 293 290 286 279 277 273 272 269 266 265 264 259 257 251 247 242 240 241 242 243 245 245 247
300 302 305 307 310 312 314 317 319 322 328 326 328 327 321 317 316 313 302 295 290 286 285 281 278 270 267 269 264 263 260 257 256 256 254 247 244 240 241 243 244 246 248 251
299 301 303 305 309 311 315 318 319 318 322 322 324 322 316 312 310 314 304 288 283 282 280 275 270 267 263 264 262 259 257 256 254 255 256 252 245 242 242 243 245 247 249 251